Weather reports worldwide

Advertisment
Kilis, Turkey (17262): temperature & dewpoint: 14.06.2019 15:00:00 - 20.06.2019 15:00:00 (EEST)Kilis, Turkey (17262): wind speed: 14.06.2019 15:00:00 - 20.06.2019 15:00:00 (EEST)Kilis, Turkey (17262): wind direction: 14.06.2019 15:00:00 - 20.06.2019 15:00:00 (EEST)Kilis, Turkey (17262): reduced air pressure: 14.06.2019 15:00:00 - 20.06.2019 15:00:00 (EEST)Kilis, Turkey (17262): visibility: 14.06.2019 15:00:00 - 20.06.2019 15:00:00 (EEST)
Date & Time tt [°C] td [°C] ff [km/h] ff [kn] dd ppp [hPa] vv [km]
20.06.2019 15:00:00 28,8 10,2 15 8 WSW 1005,4 20
20.06.2019 14:00:00 27,6 11,7 15 8 WSW 1005,7 20
20.06.2019 13:00:00 27,3 12,9 16 9 W 1006,3 20
20.06.2019 12:00:00 28,1 12,3 11 6 WSW 1006,3 20
20.06.2019 11:00:00 27,2 13,6 13 7 WSW 1006,6 20
20.06.2019 10:00:00 25,8 14,5 13 7 W 1006,9 20
20.06.2019 09:00:00 24,0 15,4 13 7 WSW 1007,1 20
20.06.2019 08:00:00 - - - - - - -
20.06.2019 07:00:00 - - - - - - -
20.06.2019 06:00:00 19,4 16,4 9 5 WSW 1006,6 20
20.06.2019 05:00:00 - - - - - - -
20.06.2019 04:00:00 - - - - - - -
20.06.2019 03:00:00 20,0 16,1 5 3 W 1006,0 20
20.06.2019 02:00:00 - - - - - - -
20.06.2019 01:00:00 - - - - - - -
20.06.2019 00:00:00 21,5 14,7 9 5 W 1006,7 20
19.06.2019 23:00:00 - - - - - - -
19.06.2019 22:00:00 - - - - - - -
19.06.2019 21:00:00 23,7 13,1 13 7 W 1006,8 20
19.06.2019 20:00:00 25,3 11,4 15 8 WSW 1006,6 20
19.06.2019 19:00:00 26,5 12,6 16 9 WSW 1006,5 20
19.06.2019 18:00:00 28,0 12,4 16 9 WSW 1006,2 20
19.06.2019 17:00:00 29,2 12,2 16 9 WSW 1006,0 20
19.06.2019 16:00:00 30,5 10,6 15 8 WSW 1006,1 20
19.06.2019 15:00:00 31,2 10,4 15 8 WSW 1006,0 20
19.06.2019 14:00:00 30,3 11,1 9 5 W 1006,7 20
19.06.2019 13:00:00 29,7 11,9 13 7 WSW 1006,9 20
19.06.2019 12:00:00 29,3 12,0 11 6 W 1007,1 20
19.06.2019 11:00:00 28,4 12,8 9 5 W 1007,4 20
19.06.2019 10:00:00 26,6 15,2 11 6 W 1007,7 20
19.06.2019 09:00:00 24,4 15,0 11 6 W 1007,9 20
19.06.2019 08:00:00 - - - - - - -
19.06.2019 07:00:00 - - - - - - -
19.06.2019 06:00:00 20,0 16,4 5 3 W 1007,7 20
19.06.2019 05:00:00 - - - - - - -
19.06.2019 04:00:00 - - - - - - -
19.06.2019 03:00:00 19,7 16,7 11 6 W 1008,2 20
19.06.2019 02:00:00 - - - - - - -
19.06.2019 01:00:00 - - - - - - -
19.06.2019 00:00:00 20,5 16,0 9 5 WSW 1009,1 20
18.06.2019 23:00:00 - - - - - - -
18.06.2019 22:00:00 - - - - - - -
18.06.2019 21:00:00 22,8 13,3 9 5 WSW 1009,2 20
18.06.2019 20:00:00 24,2 11,1 13 7 WSW 1008,8 20
18.06.2019 19:00:00 26,4 10,3 13 7 WSW 1008,5 20
18.06.2019 18:00:00 27,6 9,0 15 8 WSW 1008,1 20
18.06.2019 17:00:00 28,2 9,2 16 9 W 1008,0 20
18.06.2019 16:00:00 28,8 12,4 18 10 WSW 1008,1 20
18.06.2019 15:00:00 28,9 12,8 16 9 WSW 1008,0 20
18.06.2019 14:00:00 28,6 13,8 16 9 WSW 1008,0 20
18.06.2019 13:00:00 28,9 12,3 15 8 WSW 1008,1 20
18.06.2019 12:00:00 27,3 13,9 11 6 W 1008,9 20
18.06.2019 11:00:00 27,5 13,8 13 7 WSW 1008,8 20
18.06.2019 10:00:00 26,1 14,7 13 7 WSW 1008,8 20
18.06.2019 09:00:00 24,7 14,6 13 7 WSW 1008,8 20
18.06.2019 08:00:00 - - - - - - -
18.06.2019 07:00:00 - - - - - - -
18.06.2019 06:00:00 19,6 16,3 5 3 W 1008,2 20
18.06.2019 05:00:00 - - - - - - -
18.06.2019 04:00:00 - - - - - - -
18.06.2019 03:00:00 19,8 16,1 13 7 W 1007,4 20
18.06.2019 02:00:00 - - - - - - -
18.06.2019 01:00:00 - - - - - - -
18.06.2019 00:00:00 20,7 14,9 11 6 WSW 1008,1 20
17.06.2019 23:00:00 - - - - - - -
17.06.2019 22:00:00 - - - - - - -
17.06.2019 21:00:00 23,3 12,6 13 7 WSW 1007,2 20
17.06.2019 20:00:00 24,8 12,3 13 7 WSW 1006,8 20
17.06.2019 19:00:00 26,6 12,2 15 8 WSW 1006,4 20
17.06.2019 18:00:00 27,5 12,4 16 9 WSW 1006,0 20
17.06.2019 17:00:00 29,0 12,0 16 9 WSW 1005,6 20
17.06.2019 16:00:00 30,8 10,6 11 6 SW 1005,4 20
17.06.2019 15:00:00 30,7 10,5 15 8 SW 1005,4 20
17.06.2019 14:00:00 30,8 10,7 11 6 SW 1005,7 20
17.06.2019 13:00:00 29,9 11,6 13 7 WSW 1005,9 20
17.06.2019 12:00:00 29,4 12,0 11 6 W 1006,2 20
17.06.2019 11:00:00 28,1 13,4 11 6 W 1006,6 20
17.06.2019 10:00:00 27,0 13,7 9 5 W 1006,9 20
17.06.2019 09:00:00 24,3 15,8 11 6 WNW 1006,8 20
17.06.2019 08:00:00 - - - - - - -
17.06.2019 07:00:00 - - - - - - -
17.06.2019 06:00:00 19,7 15,8 5 3 W 1006,0 20
17.06.2019 05:00:00 - - - - - - -
17.06.2019 04:00:00 - - - - - - -
17.06.2019 03:00:00 20,9 15,0 8 4 W 1005,4 20
17.06.2019 02:00:00 - - - - - - -
17.06.2019 01:00:00 - - - - - - -
17.06.2019 00:00:00 21,6 14,0 2 1 W 1005,9 20
16.06.2019 23:00:00 - - - - - - -
16.06.2019 22:00:00 - - - - - - -
16.06.2019 21:00:00 24,3 14,5 13 7 WSW 1005,8 20
16.06.2019 20:00:00 25,8 15,1 15 8 WSW 1005,5 20
16.06.2019 19:00:00 28,7 12,7 11 6 W 1005,1 20
16.06.2019 18:00:00 29,8 11,2 13 7 WSW 1004,8 20
16.06.2019 17:00:00 31,4 11,6 13 7 WSW 1004,4 20
16.06.2019 16:00:00 32,7 9,9 11 6 WSW 1004,5 20
16.06.2019 15:00:00 33,4 8,7 5 3 SW 1004,7 20
16.06.2019 14:00:00 33,5 8,2 5 3 WSW 1004,8 20
16.06.2019 13:00:00 33,8 9,7 4 2 S 1005,1 20
16.06.2019 12:00:00 32,1 11,6 4 2 WNW 1005,6 20
16.06.2019 11:00:00 31,3 12,5 4 2 WNW 1005,9 20
16.06.2019 10:00:00 27,8 12,9 2 1 NNW 1006,0 20
16.06.2019 09:00:00 26,6 13,7 4 2 WNW 1005,6 20
16.06.2019 08:00:00 - - - - - - -
16.06.2019 07:00:00 - - - - - - -
16.06.2019 06:00:00 20,8 15,3 5 3 WNW 1005,3 20
16.06.2019 05:00:00 - - - - - - -
16.06.2019 04:00:00 - - - - - - -
16.06.2019 03:00:00 20,7 15,3 8 4 WNW 1005,0 20
16.06.2019 02:00:00 - - - - - - -
16.06.2019 01:00:00 - - - - - - -
16.06.2019 00:00:00 22,3 14,4 9 5 W 1005,3 20
15.06.2019 23:00:00 - - - - - - -
15.06.2019 22:00:00 - - - - - - -
15.06.2019 21:00:00 26,6 13,1 9 5 W 1005,0 20
15.06.2019 20:00:00 27,6 13,3 9 5 W 1005,3 20
15.06.2019 19:00:00 29,4 12,5 11 6 W 1005,1 20
15.06.2019 18:00:00 31,1 10,4 11 6 W 1004,7 20
15.06.2019 17:00:00 30,8 9,5 5 3 W 1004,7 20
15.06.2019 16:00:00 31,4 10,2 8 4 W 1005,0 20
15.06.2019 15:00:00 30,4 9,9 4 2 WNW 1005,6 20
15.06.2019 14:00:00 32,4 8,2 4 2 SW 1005,8 20
15.06.2019 13:00:00 32,3 9,7 5 3 ESE 1006,1 20
15.06.2019 12:00:00 31,5 10,2 5 3 S 1006,6 20
15.06.2019 11:00:00 29,8 10,4 4 2 S 1006,8 20
15.06.2019 10:00:00 28,3 11,4 2 1 WSW 1007,0 20
15.06.2019 09:00:00 27,0 11,9 2 1 S 1007,0 20
15.06.2019 08:00:00 - - - - - - -
15.06.2019 07:00:00 - - - - - - -
15.06.2019 06:00:00 20,0 15,0 4 2 WNW 1006,3 20
15.06.2019 05:00:00 - - - - - - -
15.06.2019 04:00:00 - - - - - - -
15.06.2019 03:00:00 19,9 15,5 8 4 W 1005,8 20
15.06.2019 02:00:00 - - - - - - -
15.06.2019 01:00:00 - - - - - - -
15.06.2019 00:00:00 22,5 12,7 4 2 W 1006,6 20
14.06.2019 23:00:00 - - - - - - -
14.06.2019 22:00:00 - - - - - - -
14.06.2019 21:00:00 24,6 12,9 2 1 WNW 1007,2 20
14.06.2019 20:00:00 25,2 12,4 8 4 W 1007,2 20
14.06.2019 19:00:00 26,7 12,5 8 4 W 1007,0 20
14.06.2019 18:00:00 27,4 11,3 9 5 W 1006,1 20
14.06.2019 17:00:00 28,2 12,0 15 8 WSW 1006,1 20
14.06.2019 16:00:00 30,2 10,3 9 5 WSW 1005,9 20
14.06.2019 15:00:00 30,6 10,8 8 4 SW 1006,0 20

tt = temperature
td = dewpoint
ff = wind speed
dd = wind direction
ppp = reduced air pressure
vv = visibility

Next stations